TimeCEST,TemperatureF,Dew PointF,Humidity,Sea Level PressureIn,VisibilityMPH,Wind Direction,Wind SpeedMPH,Gust SpeedMPH,PrecipitationIn,Events,Conditions,WindDirDegrees,DateUTC
12:00 AM,55.4,51.8,88,30.04,6.2,SW,9.2,-,N/A,,Mostly Cloudy,230,2013-09-20 22:00:00
12:30 AM,55.4,53.6,94,30.04,6.2,WSW,6.9,-,N/A,,Mostly Cloudy,240,2013-09-20 22:30:00
1:00 AM,55.4,53.6,94,30.04,6.2,West,9.2,-,N/A,,Mostly Cloudy,260,2013-09-20 23:00:00
1:30 AM,55.4,51.8,88,30.04,6.2,West,9.2,-,N/A,,Scattered Clouds,270,2013-09-20 23:30:00
2:00 AM,53.6,51.8,94,30.04,6.2,West,6.9,-,N/A,,Mostly Cloudy,260,2013-09-21 00:00:00
2:30 AM,55.4,53.6,94,30.04,-9999.0,West,8.1,-,N/A,,Clear,270,2013-09-21 00:30:00
3:00 AM,55.4,53.6,94,30.04,-9999.0,WSW,6.9,-,N/A,,Clear,250,2013-09-21 01:00:00
3:30 AM,53.6,51.8,94,30.04,6.2,West,9.2,-,N/A,,Scattered Clouds,260,2013-09-21 01:30:00
4:00 AM,53.6,51.8,94,30.04,-9999.0,West,8.1,-,N/A,,Clear,260,2013-09-21 02:00:00
4:30 AM,53.6,51.8,94,30.04,-9999.0,West,10.4,-,N/A,,Clear,260,2013-09-21 02:30:00
5:00 AM,53.6,51.8,94,30.04,-9999.0,West,8.1,-,N/A,,Clear,260,2013-09-21 03:00:00
5:30 AM,53.6,51.8,94,30.06,6.2,West,8.1,-,N/A,,Partly Cloudy,260,2013-09-21 03:30:00
6:00 AM,51.8,51.8,100,30.06,6.2,Variable,1.2,-,N/A,,Scattered Clouds,0,2013-09-21 04:00:00
6:30 AM,53.6,51.8,94,30.06,6.2,West,9.2,-,N/A,,Scattered Clouds,270,2013-09-21 04:30:00
7:00 AM,53.6,51.8,94,30.06,6.2,West,13.8,-,N/A,,Scattered Clouds,280,2013-09-21 05:00:00
7:30 AM,53.6,51.8,94,30.09,6.2,West,13.8,-,N/A,,Scattered Clouds,270,2013-09-21 05:30:00
8:00 AM,55.4,53.6,94,30.09,6.2,WNW,11.5,-,N/A,,Scattered Clouds,290,2013-09-21 06:00:00
8:30 AM,57.2,51.8,82,30.09,6.2,West,17.3,-,N/A,,Scattered Clouds,280,2013-09-21 06:30:00
9:00 AM,59.0,51.8,77,30.09,6.2,West,16.1,-,N/A,,Scattered Clouds,280,2013-09-21 07:00:00
9:30 AM,59.0,51.8,77,30.09,6.2,West,16.1,-,N/A,,Scattered Clouds,280,2013-09-21 07:30:00
10:00 AM,60.8,53.6,77,30.12,6.2,West,17.3,-,N/A,,Scattered Clouds,280,2013-09-21 08:00:00
10:30 AM,60.8,51.8,72,30.12,6.2,WNW,17.3,-,N/A,,Scattered Clouds,290,2013-09-21 08:30:00
11:00 AM,62.6,51.8,68,30.12,6.2,WNW,16.1,-,N/A,,Scattered Clouds,290,2013-09-21 09:00:00
11:30 AM,60.8,51.8,72,30.12,6.2,WNW,16.1,-,N/A,,Scattered Clouds,300,2013-09-21 09:30:00
12:00 PM,60.8,50.0,68,30.12,6.2,WNW,18.4,-,N/A,,Scattered Clouds,300,2013-09-21 10:00:00
12:30 PM,64.4,51.8,64,30.12,6.2,WNW,17.3,-,N/A,,Scattered Clouds,300,2013-09-21 10:30:00
1:00 PM,64.4,51.8,64,30.12,6.2,WNW,17.3,-,N/A,,Scattered Clouds,300,2013-09-21 11:00:00
1:30 PM,66.2,51.8,60,30.12,6.2,WNW,16.1,-,N/A,,Scattered Clouds,300,2013-09-21 11:30:00
2:00 PM,66.2,50.0,56,30.12,6.2,WNW,18.4,-,N/A,,Scattered Clouds,290,2013-09-21 12:00:00
2:30 PM,68.0,50.0,52,30.12,6.2,WNW,16.1,-,N/A,,Scattered Clouds,300,2013-09-21 12:30:00
3:00 PM,66.2,51.8,60,30.15,6.2,WNW,17.3,-,N/A,,Scattered Clouds,290,2013-09-21 13:00:00
3:30 PM,64.4,48.2,56,30.15,6.2,WNW,18.4,-,N/A,,Partly Cloudy,290,2013-09-21 13:30:00
4:00 PM,68.0,51.8,56,30.15,6.2,WNW,18.4,-,N/A,,Scattered Clouds,290,2013-09-21 14:00:00
4:30 PM,66.2,50.0,56,30.15,6.2,WNW,17.3,-,N/A,,Scattered Clouds,300,2013-09-21 14:30:00
5:00 PM,64.4,50.0,59,30.15,6.2,WNW,17.3,-,N/A,,Scattered Clouds,290,2013-09-21 15:00:00
5:30 PM,64.4,50.0,59,30.15,6.2,WNW,15.0,-,N/A,,Scattered Clouds,290,2013-09-21 15:30:00
6:00 PM,62.6,50.0,63,30.15,6.2,WNW,15.0,-,N/A,,Scattered Clouds,290,2013-09-21 16:00:00
6:30 PM,60.8,50.0,68,30.18,6.2,NW,12.7,-,N/A,,Scattered Clouds,310,2013-09-21 16:30:00
7:00 PM,59.0,50.0,72,30.18,6.2,NW,10.4,-,N/A,,Scattered Clouds,310,2013-09-21 17:00:00
7:30 PM,57.2,50.0,77,30.18,6.2,NW,9.2,-,N/A,,Scattered Clouds,310,2013-09-21 17:30:00
8:00 PM,57.2,50.0,77,30.21,-9999.0,NW,8.1,-,N/A,,Clear,310,2013-09-21 18:00:00
8:30 PM,55.4,50.0,82,30.21,-9999.0,North,4.6,-,N/A,,Clear,350,2013-09-21 18:30:00
9:00 PM,57.2,51.8,82,30.21,-9999.0,NNE,4.6,-,N/A,,Clear,20,2013-09-21 19:00:00
9:30 PM,53.6,50.0,88,30.21,-9999.0,WNW,5.8,-,N/A,,Clear,300,2013-09-21 19:30:00
10:00 PM,50.0,48.2,94,30.21,-9999.0,Variable,3.5,-,N/A,,Clear,0,2013-09-21 20:00:00
10:30 PM,51.8,50.0,94,30.24,-9999.0,Variable,2.3,-,N/A,,Clear,0,2013-09-21 20:30:00
11:00 PM,50.0,50.0,100,30.24,-9999.0,Calm,Calm,-,N/A,,Clear,0,2013-09-21 21:00:00
11:30 PM,48.2,48.2,100,30.24,-9999.0,Variable,1.2,-,N/A,,Clear,0,2013-09-21 21:30:00